Location: Altentr�dingen
(49.0625°N, 10.6154°E)
Time: 12:09:05
(UTC+00:00)

Daily predictions for brighter satellites

Satellite Brightness Start Highest point End
(mag) Time Altitude Azimuth Time Altitude Azimuth Time Altitude Azimuth
BREEZE-M DEB (TANK) 4.0 19:13:29 10° WNW 19:19:36 31° SW 19:22:25 10° SSE
Cosmos 1666 Rocket 4.3 19:19:21 10° SSE 19:23:11 32° E 19:27:02 10° NNE
Resurs 1-3 3.6 19:20:14 10° SSE 19:24:36 81° ENE 19:29:02 10° NNW
Meteor 1-4 Rocket 3.5 19:21:58 10° N 19:25:06 30° ENE 19:28:10 10° SE
CZ-2C R/B 3.9 19:20:52 10° NNE 19:25:24 53° E 19:29:50 10° S
FREGAT/IRIS 4.2 19:23:30 10° SSW 19:25:53 29° W 19:28:16 10° NNW
Cosmos 972 4.4 19:23:04 10° NNW 19:28:19 86° ENE 19:33:13 10° SSE
SL-16 R/B 3.8 19:24:35 10° N 19:28:57 22° NE 19:33:19 10° E
Cosmos 1140 Rocket 3.9 19:25:18 10° S 19:30:10 40° ESE 19:35:04 10° NE
CENTAUR R/B 4.0 19:28:47 10° SE 19:31:52 14° ESE 19:35:09 10° ENE
COSMOS 2406 3.2 19:26:09 10° SSW 19:31:54 81° ESE 19:37:39 10° NNE
Cosmos 1805 Rocket 3.6 19:30:04 10° S 19:34:30 82° E 19:38:59 10° NNE
H-2A R/B 4.2 19:31:31 10° SSW 19:35:42 25° W 19:39:49 10° NW
Cosmos 2369 3.8 19:30:51 10° NNW 19:36:38 86° ENE 19:42:22 10° SSE
USA 186 4.1 19:37:58 10° WSW 19:39:00 12° W 19:40:02 10° WNW
Cosmos 2082 Rocket 2.6 19:35:38 10° S 19:40:57 42° ESE 19:46:16 10° NE
SPOT 1/Viking Rocket 4.3 19:37:42 11° SE 19:42:18 38° ENE 19:47:07 10° N
Cosmos 2278 3.8 19:39:19 10° NNW 19:45:04 71° ENE 19:50:18 12° SE
Shenzhou-11 Module 3.8 19:44:48 10° SW 19:45:54 12° SSW 19:46:45 11° S
CZ-2C R/B 3.0 19:41:08 10° N 19:46:17 66° WNW 19:51:26 10° SSW
Intercosmos 25 3.4 19:42:10 10° NNW 19:46:36 75° W 19:49:54 10° S
Cosmos 389 Rocket 3.7 19:46:08 10° NNW 19:49:23 40° W 19:52:39 10° SSW
MetOp-B 4.2 19:44:08 10° SSE 19:49:26 66° ENE 19:54:46 10° N
FALCON 9 DEB 3.6 19:46:15 10° SW 19:49:33 41° SE 19:52:52 10° ENE
Cosmos 2322 Rocket 3.7 19:45:27 10° NNW 19:50:05 25° NE 19:54:42 10° E
Cosmos 1862 4.2 19:49:48 10° SSW 19:53:46 53° WNW 19:57:46 10° N
Cosmos 1633 Rocket 3.2 19:50:15 10° S 19:54:34 55° E 19:58:54 10° NNE
OBJECT-B 2.4 19:54:16 10° SSW 19:57:17 34° W 20:00:21 10° NNW
Lacrosse 5 2.5 19:52:31 10° NW 19:57:28 50° NNE 20:02:05 12° E
Cosmos 614 Rocket 4.3 19:52:59 10° SSW 19:58:08 74° WNW 20:03:23 10° NNE
IGS 5A 3.7 19:54:58 14° SSE 19:58:19 55° ENE 20:02:23 10° N
SPOT 3 Rocket 4.3 19:55:30 10° S 20:00:35 53° W 20:05:42 10° NNW
Cosmos 2360 Rocket 4.1 19:58:33 10° N 20:02:37 20° NE 20:06:39 10° E
NOSS 3-2 (A) 3.8 19:57:32 10° S 20:02:45 39° ESE 20:08:36 10° NE
SWAS 4.4 19:58:51 10° SSW 20:03:10 87° ESE 20:07:31 10° NNE
Cosmos 1867 3.7 19:58:38 10° SSW 20:03:51 51° ESE 20:09:09 10° NE
USA 267 3.3 19:58:43 10° ENE 20:05:10 58° SE 20:11:36 10° SW
Cosmos 1707 Rocket 3.9 20:01:16 10° NNW 20:05:35 64° W 20:09:52 10° S
Cosmos 676 Rocket 4.2 20:01:49 10° S 20:06:58 52° ESE 20:12:09 10° NNE
BREEZE-M DEB (TANK) 1.5 20:06:55 10° W 20:09:43 83° N 20:10:42 25° E
NOSS 3-2 (C) 4.2 20:05:28 10° S 20:10:13 28° ESE 20:15:27 10° ENE
Terra 3.0 20:08:56 17° ESE 20:11:43 29° ENE 20:15:48 10° N
Cosmos 1980 Rocket 2.2 20:06:27 10° NNW 20:12:10 84° WSW 20:16:37 17° SSE
ATLAS 5 CENTAUR R/B 4.1 20:08:58 10° WNW 20:13:46 26° WSW 20:19:05 10° S
Genesis I 3.3 20:11:06 10° NW 20:14:57 67° SW 20:17:19 22° SSE
Cosmos 1238 Rocket 2.8 20:14:50 28° SE 20:15:38 33° E 20:18:20 10° NNE
Cosmos 1437 Rocket 3.9 20:12:26 10° N 20:15:43 27° ENE 20:17:12 21° ESE
Meteor 1-27 Rocket 4.5 20:12:40 10° NNW 20:18:27 57° W 20:24:14 10° S
Cosmos 1470 Rocket 3.7 20:15:47 15° S 20:19:17 56° E 20:23:35 10° NNE
Okean 1 3.9 20:15:29 10° N 20:19:21 42° ENE 20:21:16 25° SE
Cosmos 921 Rocket 3.0 20:15:11 10° NNW 20:19:25 66° ENE 20:21:49 24° SE
ERS-1 Rocket 3.3 20:16:09 20° SE 20:19:25 51° ENE 20:24:18 10° N
deb Kosmos-1763 3.9 20:15:54 10° SSW 20:19:30 83° ESE 20:23:11 10° NNE
Resurs 01 Rocket 2.7 20:15:25 10° S 20:19:38 43° W 20:23:53 10° NNW
Cosmos 1184 Rocket 2.7 20:20:53 17° S 20:23:21 79° E 20:26:41 10° NNE
Cosmos 405 Rocket 3.1 20:22:44 27° SE 20:24:09 39° E 20:27:39 10° NNE
USA 276 2.3 20:21:14 10° W 20:24:25 72° N 20:26:24 21° E
Meteor 1-19 Rocket 4.5 20:20:07 10° N 20:25:24 51° ENE 20:28:36 23° SE
Cosmos 1934 Rocket 4.1 20:19:42 10° S 20:26:05 84° W 20:32:30 10° N
Cosmos 468 Rocket 4.3 20:21:08 10° NNW 20:26:24 56° ENE 20:29:30 24° SE
Cosmos 1697 Rocket 3.8 20:21:33 10° NW 20:26:42 38° WSW 20:31:49 10° S
Cosmos 1833 Rocket 3.3 20:21:43 10° SW 20:27:16 59° WNW 20:32:52 10° NNE
Cosmos 2333 Rocket 4.4 20:25:51 10° N 20:29:21 16° NNE 20:32:51 10° ENE
Cosmos 1862 Rocket 3.8 20:28:03 10° NNW 20:32:31 69° W 20:35:46 18° S
GP-B 3.2 20:28:45 10° N 20:33:13 80° W 20:36:51 15° S
X-37B 1.1 20:31:03 10° WSW 20:34:02 38° S 20:34:11 38° SSE
SPOT 5 2.7 20:33:39 28° SE 20:35:45 58° ENE 20:40:05 10° N
SL-4 R/B 1.7 20:31:57 10° WSW 20:35:53 87° SSE 20:39:32 10° ENE
H-2A R/B 3.8 20:31:50 10° N 20:35:56 65° WNW 20:40:00 10° SSW
Cosmos 1954 Rocket 4.0 20:33:28 10° SSW 20:38:48 90° WNW 20:44:10 10° NNE
Spot 2 Rocket 3.9 20:37:06 17° S 20:41:04 62° WSW 20:46:09 10° NNW
USA 234 3.2 20:37:04 22° SE 20:41:31 83° SW 20:48:06 10° WNW
Cosmos 1515 3.9 20:40:56 10° N 20:44:42 54° ENE 20:45:49 38° SE
ATLAS 3B R/B 3.8 20:48:21 21° ESE 20:48:22 21° ESE 20:53:03 10° ENE
SAR-Lupe-2 3.6 20:47:08 10° NNE 20:50:41 59° ESE 20:51:31 45° SSE
Cosmos 44 3.8 20:49:32 10° NNW 20:54:17 51° NE 20:56:43 28° ESE
Meteor 2-4 Rocket 3.9 20:48:58 10° N 20:54:34 55° ENE 20:57:01 31° SE
CARTOSAT-1 3.6 20:53:39 31° S 20:55:40 77° WSW 21:00:01 10° NNW
Iridium 4 Rocket 3.9 20:55:21 30° ESE 20:56:02 32° E 20:59:48 10° NNE
Meteor 1-18 Rocket 4.2 20:50:42 10° NNW 20:56:20 85° W 20:59:26 27° S
USA 238 DEB 3.6 20:53:08 10° SW 20:59:46 82° SE 21:06:44 10° NE
USA 238 3.6 20:53:15 10° SW 20:59:53 82° SE 21:06:51 10° NE
Cosmos 1933 Rocket 3.6 20:57:38 24° SSW 21:00:19 80° W 21:04:47 10° N
Aureole 2 4.5 21:07:15 45° SSW 21:08:17 89° ESE 21:12:21 10° NNE
Cosmos 1763 Rocket 3.5 21:03:59 10° NNW 21:09:20 79° WSW 21:11:34 36° SSE
Cosmos 1869 Rocket 3.7 21:10:00 45° SE 21:10:54 55° E 21:15:17 10° NNE
SL-16 R/B 2.1 21:08:08 10° NNW 21:13:52 89° WSW 21:16:10 38° SSE
Cosmos 2100 Rocket 4.0 21:12:39 33° SSE 21:15:29 64° E 21:21:34 10° NNE
Cosmos 1703 Rocket 3.9 21:16:14 10° NNW 21:20:32 60° W 21:21:59 38° SSW
Cosmos 2219 Rocket 3.8 21:15:52 10° NNW 21:20:34 25° NE 21:23:55 15° E
CENTAUR R/B 2.4 21:15:04 10° SSW 21:20:59 72° SE 21:28:05 10° NE
Cosmos 2082 Rocket 3.6 21:19:47 10° WSW 21:25:06 39° NW 21:30:25 10° NNE
FALCON 9 DEB 3.8 21:23:05 10° W 21:26:32 56° NNW 21:28:47 20° ENE
Cosmos 2173 Rocket 3.9 21:25:03 35° S 21:27:47 74° E 21:33:53 10° NNE
Okean 3 3.5 21:24:42 10° N 21:28:59 65° ENE 21:29:33 58° ESE
Okean 1-7 3.6 21:28:46 10° NNW 21:32:57 49° W 21:34:11 37° SW
ALOS 2 4.2 21:32:14 21° E 21:33:06 22° ENE 21:36:30 10° NNE
Cosmos 2237 4.3 21:28:38 10° NNW 21:34:21 69° ENE 21:36:15 42° SE
Cosmos 2322 Rocket 2.2 21:29:04 10° NNW 21:34:47 77° WSW 21:36:38 44° SSE
Cosmos 1725 Rocket 4.3 21:33:23 38° SE 21:35:13 49° E 21:41:16 10° NNE
SL-27 R/B 2.6 21:38:44 63° N 21:38:44 63° N 21:41:39 10° NNE
Lacrosse 5 2.1 21:35:35 10° WNW 21:40:31 52° SW 21:41:15 48° SSW
Cosmos 1850 Rocket 4.4 21:41:28 20° SW 21:45:04 64° WNW 21:50:20 10° NNE
Cosmos 1733 Rocket 3.7 21:46:13 41° E 21:46:13 41° E 21:50:10 10° NNE
Cosmos 2016 Rocket 4.0 21:44:23 43° SSE 21:46:34 71° E 21:52:56 10° NNE
Cosmos 1459 Rocket 4.0 21:43:59 34° SSW 21:46:57 84° W 21:53:23 10° N
Cosmos 2360 Rocket 2.2 21:41:52 10° NNW 21:47:35 78° ENE 21:49:10 49° SE
USA 267 3.7 21:41:48 10° NE 21:48:16 64° NNW 21:54:43 10° WSW
Terra 2.7 21:47:50 31° SW 21:49:20 40° W 21:53:50 10° NNW
Cosmos 1500 3.5 21:51:07 54° W 21:51:24 55° WNW 21:55:06 10° N
Cosmos 1437 Rocket 4.3 21:48:43 10° NW 21:51:56 26° W 21:52:35 24° WSW
Cosmos 2221 Rocket 3.4 21:48:01 10° N 21:52:31 90° WNW 21:52:58 72° S
Thor Agena Rocket 3.9 21:48:08 10° NNE 21:53:02 45° E 21:53:15 44° ESE
NOSS 3-2 (A) 4.2 21:47:37 10° WSW 21:53:23 54° NW 22:00:02 10° NE
Cosmos 1980 Rocket 4.4 21:52:17 10° WNW 21:55:17 15° W 21:58:16 10° SW
COSMOS 2428 3.8 21:50:29 10° NNW 21:55:47 37° NE 21:58:12 26° E
Cosmos 540 Rocket 3.7 21:51:40 10° NNW 21:56:46 61° WSW 21:57:48 50° SSW
Cosmos 2061 Rocket 3.9 21:54:52 45° S 21:56:56 82° E 22:03:10 10° N
ATLAS 5 CENTAUR R/B 2.1 21:55:14 10° NW 21:58:06 82° SW 21:58:55 60° SSE
Meteor 1-11 Rocket 3.6 21:58:34 53° S 21:59:57 77° E 22:05:44 10° NNE
Cosmos 1864 Rocket 4.4 21:58:17 48° SSE 22:00:06 75° E 22:06:22 10° NNE
Cosmos 967 Rocket 4.5 21:53:52 10° NW 22:00:14 72° WSW 22:01:58 49° S
NOSS 3-2 (C) 3.7 21:54:40 10° SW 22:00:28 69° NW 22:07:13 10° NE
USA 276 4.4 21:57:37 10° WNW 21:58:45 20° W 21:58:45 20° W
Cosmos 1666 2.9 22:03:20 64° NNE 22:03:20 64° NNE 22:06:35 10° N
Cosmos 841 Rocket 3.9 21:58:04 10° NNW 22:03:09 52° WSW 22:04:10 45° SW
BREEZE-M DEB (TANK) 3.6 22:00:31 10° W 22:04:29 86° S 22:19:47 10° ESE
Cosmos 2346 Rocket 4.4 21:59:15 10° NNW 22:05:19 76° W 22:07:07 48° S
Cosmos 1743 4.2 22:10:20 28° ENE 22:10:20 28° ENE 22:12:50 10° NNE
Cosmos 1802 Rocket 4.2 22:08:28 36° SSW 22:11:14 70° W 22:17:36 10° N
Cosmos 2237 Rocket 4.0 22:09:13 10° N 22:13:47 24° NE 22:17:20 14° E
Cosmos 2084 Rocket 3.8 22:12:58 48° W 22:13:56 63° NW 22:18:14 10° NE
COSMOS 2487 4.2 22:16:14 25° NE 22:16:14 25° NE 22:17:55 10° NNE
Cosmos 2333 Rocket 2.6 22:09:16 10° NNW 22:14:58 57° NE 22:16:34 42° ESE
Cosmos 1271 Rocket 3.7 22:11:33 10° N 22:14:37 39° NE 22:14:37 39° NE
SL-4 R/B 2.5 22:11:57 10° W 22:15:11 50° NNW 22:15:11 50° NNW
ERBS 4.4 22:13:36 10° NW 22:16:22 24° NNE 22:17:14 22° NE
Cosmos 2233 Rocket 4.0 22:18:13 52° SSE 22:19:39 68° E 22:25:56 10° NNE
Cosmos 1378 Rocket 3.6 22:18:49 10° N 22:23:11 70° ENE 22:23:11 70° ENE
CRYOSAT 2 4.4 22:19:15 10° N 22:24:08 70° W 22:24:47 61° SW
USA 234 4.2 22:24:24 28° SW 22:25:09 28° SW 22:30:40 10° WNW
Cosmos 1536 3.1 22:25:42 62° NW 22:25:42 62° NW 22:29:23 10° N
Cosmos 1066 Rocket 4.2 22:20:38 10° NNW 22:26:21 77° W 22:27:21 60° SSW
Cosmos 1378 3.8 22:27:50 10° N 22:30:46 52° N 22:30:46 52° N
Helios 1A 4.2 22:31:45 32° ENE 22:31:51 32° ENE 22:35:38 10° N
Cosmos 44 4.5 22:31:02 10° NW 22:35:07 31° WSW 22:35:07 31° WSW
Meteor 1-23 Rocket 4.4 22:32:06 10° NNW 22:37:53 67° W 22:38:56 55° SSW
Cosmos 44 Rocket 3.8 22:33:07 10° NNW 22:38:02 57° NE 22:38:57 49° E
MOS 1-B Rocket 4.2 22:32:30 10° N 22:38:05 60° WNW 22:40:00 39° SW
ATLAS 3B R/B 2.5 22:35:32 40° SW 22:38:10 89° SE 22:44:53 10° NE
Cosmos 1975 Rocket 4.0 22:35:04 10° N 22:39:16 37° ENE 22:39:16 37° ENE
Cosmos 1486 Rocket 3.9 22:40:49 70° ESE 22:40:55 70° ESE 22:46:07 10° NNE
Cosmos 1242 Rocket 4.1 22:43:50 10° NNW 22:46:17 32° WNW 22:46:17 32° WNW
Tsikada Rocket 4.4 22:42:25 10° NNW 22:48:33 52° W 22:50:09 42° SW
Lacrosse 4 Rocket 1.8 22:53:53 60° NNE 22:53:53 60° NNE 22:57:23 10° NNE
Cosmos 2227 Rocket 4.2 22:53:33 14° E 22:53:33 14° E 22:56:13 10° ENE
Cosmos 1975 3.8 22:54:57 40° NE 22:54:57 40° NE 22:57:54 10° NNE
Cosmos 1842 4.0 22:52:50 10° N 22:55:59 49° NNE 22:55:59 49° NNE
SL-16 R/B 4.1 22:53:51 10° WNW 22:57:08 16° W 22:58:01 15° WSW
Nimbus 7 Rocket 4.3 22:56:18 10° NNE 23:02:12 83° WNW 23:03:22 60° SSW
Cosmos 1544 4.3 23:03:45 40° NNE 23:03:45 40° NNE 23:06:14 10° NNE
Cosmos 2322 3.9 22:57:14 10° NW 23:02:46 55° WSW 23:03:02 55° WSW
Cosmos 2219 Rocket 2.1 22:59:25 10° NNW 23:05:07 75° WSW 23:05:36 70° SSW
ALOS 2 3.3 23:09:38 45° WNW 23:09:38 45° WNW 23:13:25 10° NNW
Meteor 1-21 4.2 23:03:38 10° N 23:09:28 74° ENE 23:10:19 63° SE
Cosmos 773 Rocket 4.4 23:05:01 10° NNW 23:10:04 52° ENE 23:10:53 47° E
Cosmos 489 Rocket 4.5 23:05:01 10° NNW 23:11:16 65° WSW 23:12:11 58° SSW
CENTAUR R/B 4.0 23:06:19 10° W 23:12:17 39° NNW 23:19:17 10° NE
Cosmos 1025 Rocket 4.3 23:10:24 10° N 23:14:15 32° ENE 23:14:15 32° ENE
NOSS 0 Rocket 3.9 23:10:13 10° NNW 23:16:30 79° ENE 23:18:00 54° SE
Cosmos 2322 Rocket 4.3 23:15:18 10° WNW 23:17:51 13° W 23:18:26 13° WSW
Cosmos 968 Rocket 3.5 23:18:43 64° W 23:19:12 68° WNW 23:24:20 10° NNE
Meteor 1-24 4.5 23:15:22 10° NNW 23:20:58 86° W 23:21:28 75° S
SL-16 R/B 3.8 23:20:37 10° NNW 23:25:36 30° NE 23:29:54 13° ESE
USA 267 4.3 23:24:37 10° ENE 23:30:45 45° N 23:36:54 10° WNW
Cosmos 2360 Rocket 3.9 23:27:02 10° NW 23:30:54 19° W 23:30:54 19° W
Helios 1B rocket 3.8 23:28:06 10° NNE 23:31:05 31° ENE 23:31:05 31° ENE
Cosmos 1354 Rocket 3.9 23:37:57 72° WSW 23:38:26 79° WNW 23:43:48 10° NNE
COSMOS 2428 3.1 23:34:45 10° NW 23:40:11 46° WSW 23:40:11 46° WSW
Cosmos 1536 Rocket 4.2 23:37:43 10° N 23:41:51 47° ENE 23:41:51 47° ENE
Timation 2 Rocket 3.9 23:42:46 60° SSE 23:43:31 66° ESE 23:49:30 10° NE
Cosmos 1782 Rocket 4.0 23:45:29 53° WNW 23:45:29 53° WNW 23:49:25 10° N
Meteor 2-9 Rocket 4.2 23:45:25 61° WSW 23:46:11 70° WNW 23:51:55 10° N
Cosmos 2297 Rocket 2.8 23:46:33 42° ESE 23:46:50 42° ESE 23:52:07 10° NE
Cosmos 1980 3.5 23:43:46 10° NNW 23:49:29 86° WSW 23:50:12 70° SSE
Cosmos 2219 3.4 23:53:04 53° SE 23:53:25 54° ESE 23:58:54 10° NE
Cosmos 2026 Rocket 4.4 23:47:27 10° N 23:53:25 53° ENE 23:55:25 38° SE
